Weather History for Cherry Point, NC

Change the Weather History Date:

Wednesday, December 26, 2012

  Actual Average Record
Temperature  
Mean Temperature 58 °F -  
Max Temperature 66 °F 53 °F 66 °F (2006)
Min Temperature 48 °F 33 °F 18 °F (1999)
Degree Days  
Heating Degree Days 7    
Growing Degree Days 8 (Base 50)    
Moisture  
Dew Point 53 °F    
Average Humidity 85    
Maximum Humidity 94    
Minimum Humidity 65    
Precipitation  
Precipitation 0.89 in - - ()
Sea Level Pressure  
Sea Level Pressure 29.72 in    
Wind  
Wind Speed 12 mph ()    
Max Wind Speed 24 mph    
Max Gust Speed 34 mph    
Visibility 6.0 miles    
Events Rain , Thunderstorm    
Averages and records for this station are not official NWS values.
T = Trace of Precipitation, MM = Missing Value Source: Averaged Metar Reports

Daily Weather History Graph

Daily Weather History Graph

Search for Another Location

Airport:

Trip Planner

Search our weather history database for the weather conditions in past years. The results will help you decide how hot, cold, wet, or windy it might be!

Date:

Astronomy

Dec. 26, 2012 Rise Set
Actual Time 7:13 AM EST 5:03 PM EST
Civil Twilight 6:45 AM EST 5:31 PM EST
Nautical Twilight 6:13 AM EST 6:02 PM EST
Astronomical Twilight 5:43 AM EST 6:33 PM EST
Moon 3:53 PM EST (12/26) 5:36 AM EST (12/26)
Length of Visible Light 10h 45m
Length of Day
9h 49m
Waxing Gibbous, 97% of the Moon is Illuminated
Dec 26
Waxing Gibbous
Dec 28
Full
Jan 4
Last Quarter
Jan 11
New
Jan 18
First Quarter

Hourly Weather History & Observations

Time (EST) Temp. Dew Point Humidity Pressure Visibility Wind Dir Wind Speed Gust Speed Precip Events Conditions
12:54 AM 50.0 °F 44.1 °F 80% 30.06 in 10.0 mi ENE 10.4 mph - N/A   Overcast
1:54 AM 50.0 °F 45.0 °F 83% 30.04 in 10.0 mi ENE 11.5 mph - N/A   Overcast
2:54 AM 51.1 °F 45.0 °F 80% 30.03 in 10.0 mi ENE 13.8 mph 23.0 mph N/A   Overcast
3:09 AM 51.8 °F 44.6 °F 76% 30.03 in 10.0 mi ENE 16.1 mph 24.2 mph N/A   Overcast
3:54 AM 51.1 °F 45.0 °F 80% 30.01 in 10.0 mi ENE 15.0 mph 20.7 mph N/A   Overcast
4:54 AM 52.0 °F 46.0 °F 80% 29.96 in 10.0 mi ENE 15.0 mph 25.3 mph 0.00 in   Overcast
5:52 AM 51.8 °F 48.2 °F 88% 29.94 in 5.0 mi ENE 17.3 mph 26.5 mph 0.04 in Rain Light Rain
5:54 AM 51.1 °F 48.0 °F 89% 29.94 in 6.0 mi ENE 19.6 mph 26.5 mph 0.04 in Rain Light Rain
6:45 AM 51.8 °F 48.2 °F 88% 29.93 in 5.0 mi ENE 12.7 mph 19.6 mph 0.03 in Rain Heavy Rain
6:54 AM 51.1 °F 48.0 °F 89% 29.90 in 3.0 mi ENE 19.6 mph 25.3 mph 0.07 in Rain Heavy Rain
7:06 AM 51.8 °F 48.2 °F 88% 29.89 in 3.0 mi ENE 19.6 mph 25.3 mph 0.05 in Rain Heavy Rain
7:25 AM 51.8 °F 48.2 °F 88% 29.88 in 5.0 mi ENE 20.7 mph 26.5 mph 0.10 in Rain Rain
7:54 AM 53.1 °F 50.0 °F 89% 29.86 in 3.0 mi ENE 17.3 mph 27.6 mph 0.19 in Rain Heavy Rain
8:07 AM 53.6 °F 50.0 °F 88% 29.88 in 1.8 mi East 11.5 mph - 0.14 in Rain Heavy Rain
8:15 AM 53.6 °F 51.8 °F 94% 29.88 in 2.0 mi East 4.6 mph - 0.18 in Rain Rain
8:21 AM 53.6 °F 51.8 °F 94% 29.87 in 1.8 mi ENE 5.8 mph - 0.23 in Rain Heavy Rain
8:26 AM 53.6 °F 51.8 °F 94% 29.86 in 1.5 mi Calm Calm - 0.24 in Rain Rain
8:31 AM 53.6 °F 51.8 °F 94% 29.86 in 3.0 mi NW 5.8 mph - 0.24 in Rain Light Rain
8:54 AM 53.1 °F 51.1 °F 93% 29.83 in 1.8 mi East 3.5 mph - 0.28 in Rain Heavy Rain
9:05 AM 53.6 °F 51.8 °F 94% 29.84 in 2.5 mi Calm Calm - 0.01 in Rain Light Rain
9:12 AM 53.6 °F 51.8 °F 94% 29.84 in 4.0 mi NE 4.6 mph - 0.01 in Rain Light Rain
9:54 AM 55.0 °F 53.1 °F 93% 29.78 in 2.0 mi East 6.9 mph - 0.05 in Rain Light Rain
10:03 AM 55.4 °F 53.6 °F 94% 29.80 in 4.0 mi ESE 3.5 mph - 0.00 in   Mostly Cloudy
10:13 AM 57.2 °F 55.4 °F 94% 29.79 in 5.0 mi Variable 5.8 mph - 0.00 in Rain Light Rain
10:28 AM 59.0 °F 57.2 °F 94% 29.77 in 3.0 mi SE 4.6 mph 21.9 mph 0.03 in Rain Light Rain
10:31 AM 59.0 °F 57.2 °F 94% 29.77 in 2.5 mi SE 6.9 mph - 0.03 in Rain Rain
10:33 AM 60.8 °F 57.2 °F 88% 29.76 in 3.0 mi SE 8.1 mph - 0.03 in Rain Rain
10:49 AM 64.4 °F 60.8 °F 88% 29.74 in 7.0 mi South 11.5 mph 18.4 mph 0.04 in Rain Light Rain
10:54 AM 64.0 °F 61.0 °F 90% 29.74 in 7.0 mi South 16.1 mph 21.9 mph 0.04 in Rain Light Rain
11:49 AM 66.2 °F 60.8 °F 83% 29.66 in 7.0 mi South 13.8 mph 21.9 mph 0.05 in Rain , Thunderstorm Light Thunderstorms and Rain
11:54 AM 66.0 °F 61.0 °F 84% 29.65 in 7.0 mi SSE 15.0 mph 24.2 mph 0.05 in Thunderstorm Thunderstorm
12:05 PM 66.2 °F 60.8 °F 83% 29.64 in 9.0 mi SSE 18.4 mph 27.6 mph 0.00 in   Overcast
12:54 PM 66.9 °F 60.1 °F 79% 29.58 in 9.0 mi South 17.3 mph 32.2 mph 0.01 in   Overcast
1:17 PM 66.2 °F 60.8 °F 83% 29.58 in 2.5 mi South 9.2 mph 25.3 mph 0.05 in Rain , Thunderstorm Thunderstorms and Rain
1:35 PM 66.2 °F 62.6 °F 88% 29.60 in 4.0 mi SSW 21.9 mph 34.5 mph 0.11 in Rain , Thunderstorm Thunderstorms and Rain
1:54 PM 66.0 °F 62.1 °F 87% 29.58 in 3.0 mi SSW 16.1 mph 24.2 mph 0.16 in Rain Rain
2:00 PM 66.2 °F 62.6 °F 88% 29.58 in 2.5 mi South 11.5 mph 24.2 mph 0.02 in Rain , Thunderstorm Thunderstorms and Rain
2:07 PM 64.4 °F 60.8 °F 88% 29.57 in 3.0 mi South 13.8 mph 19.6 mph 0.04 in Rain , Thunderstorm Thunderstorms and Rain
2:26 PM 64.4 °F 62.6 °F 94% 29.55 in 1.5 mi South 15.0 mph 21.9 mph 0.16 in Rain , Thunderstorm Heavy Thunderstorms and Rain
2:58 PM 66.2 °F 62.6 °F 88% 29.51 in 3.0 mi South 19.6 mph 31.1 mph 0.00 in Rain , Thunderstorm Light Rain
3:06 PM 66.2 °F 60.8 °F 83% 29.52 in 9.0 mi SSW 18.4 mph 28.8 mph 0.00 in Thunderstorm Thunderstorm
3:19 PM 66.2 °F 60.8 °F 83% 29.50 in 7.0 mi South 12.7 mph 32.2 mph 0.00 in Thunderstorm Thunderstorm
3:54 PM 66.9 °F 61.0 °F 81% 29.49 in 6.0 mi SSW 19.6 mph 33.4 mph 0.00 in   Overcast
4:10 PM 66.2 °F 60.8 °F 83% 29.49 in 8.0 mi SSW 18.4 mph 32.2 mph N/A   Mostly Cloudy
4:54 PM 64.9 °F 60.1 °F 84% 29.48 in 8.0 mi SSW 16.1 mph 29.9 mph N/A   Overcast
5:39 PM 64.4 °F 57.2 °F 77% 29.47 in 10.0 mi SSW 18.4 mph 25.3 mph N/A   Scattered Clouds
5:54 PM 64.0 °F 57.0 °F 78% 29.45 in 10.0 mi SSW 18.4 mph 25.3 mph N/A   Clear
6:54 PM 61.0 °F 53.1 °F 75% 29.48 in 10.0 mi SW 21.9 mph 33.4 mph N/A   Clear
7:54 PM 59.0 °F 52.0 °F 78% 29.49 in 10.0 mi SW 13.8 mph 23.0 mph N/A   Clear
8:54 PM 57.9 °F 48.9 °F 72% 29.50 in 10.0 mi WSW 12.7 mph - N/A   Mostly Cloudy
9:54 PM 57.9 °F 46.0 °F 65% 29.54 in 10.0 mi WSW 17.3 mph - N/A   Overcast
10:39 PM 53.6 °F 44.6 °F 72% 29.58 in 10.0 mi WNW 24.2 mph 29.9 mph N/A   Overcast
10:54 PM 52.0 °F 43.0 °F 71% 29.58 in 10.0 mi WNW 23.0 mph 34.5 mph N/A   Overcast
11:26 PM 50.0 °F 41.0 °F 71% 29.60 in 10.0 mi WNW 19.6 mph 25.3 mph N/A   Mostly Cloudy
11:54 PM 48.9 °F 41.0 °F 74% 29.61 in 10.0 mi West 17.3 mph 24.2 mph N/A   Mostly Cloudy